Location: Gleizolles
(44.4833°N, 6.7667°E)
Time: 05:54:15
(UTC+00:00)

Transit 4A - Pass Details

Date: 27 June 2024
Orbit: 870 x 973 km, 66.8° (Epoch: 14 July)

Event Time Altitude Azimuth Distance (km) Brightness Sun altitude
Rises 22:55:48 0° 270° (W) 3,457 11.0 -21.6°
Reaches altitude 10° 22:59:24 10° 293° (WNW) 2,520 10.6 -21.7°
Maximum altitude 23:02:46 16° 329° (NNW) 2,153 10.6 -21.8°
Drops below altitude 10° 23:06:11 10° 5° (N) 2,535 11.3 -21.9°
Sets 23:09:50 0° 27° (NNE) 3,489 11.8 -22.0°
